Simultaneous Nadir Overpasses (SNOs) Predictions

Prediction of SNOs between GOES-16 and NPP Satellite Orbit:

Table of predicted SNOs for the next 14.0 days since TLE Epoch: 11/26/2022
Index Date Time (GOES-16) GOES-16 Lat,Lon NPP Lat,Lon Distance(km) Time Diff (sec)
1 11/26/2022 06:26:48 0.01, -75.20 -0.09, -74.89 35.87 80
2 11/28/2022 18:27:17 -0.01, -75.21 -0.12, -75.64 49.27 80
3 11/29/2022 18:11:12 -0.01, -75.22 0.90, -71.10 468.67 80
4 12/01/2022 06:30:18 0.00, -75.23 0.28, -76.36 129.73 80
5 12/02/2022 06:14:12 0.00, -75.24 -0.74, -71.83 388.79 80
6 12/03/2022 18:33:28 0.00, -75.27 -0.42, -77.13 211.86 80
7 12/04/2022 18:17:22 -0.00, -75.29 0.60, -72.59 307.15 80
8 12/06/2022 06:36:29 0.00, -75.31 0.58, -77.85 289.70 80
9 12/07/2022 06:17:43 0.01, -75.33 -0.44, -73.32 229.45 80
10 12/08/2022 18:39:38 -0.01, -75.36 -0.71, -78.62 370.47 80
11 12/09/2022 18:23:32 -0.01, -75.38 0.26, -74.07 149.01 80
